Regional Weather Roundup
Issued by NWS

Home | Current Version | Previous Version | Graphics & Text | Print | Product List | Glossary On
Versions: 1 2 3 4 5 6 7 8 9 10 11 12 13 14 15 16 17 18 19 20 21 22 23 24 25 26 27 28 29 30 31 32 33 34 35 36 37 38 39 40 41 42 43 44 45 46 47 48 49 50
000
ASUS45 KBOU 011807
RWRCO

WEATHER ROUNDUP FOR COLORADO
NATIONAL WEATHER SERVICE DENVER/BOULDER CO
1200 PM MDT FRI AUG 01 2014

NOTE: "FAIR" INDICATES FEW OR NO CLOUDS BELOW 12000 FEET WITH NO
SIGNIFICANT WEATHER AND/OR OBSTRUCTIONS TO VISIBILITY.

COZ001>005-013-030-031-011900-
...NORTHWEST COLORADO...

CITY           SKY/WX    TMP DP  RH WIND       PRES   REMARKS
CRAIG          MOSUNNY   75  49  39 NW10      30.29S
HAYDEN         MOSUNNY   72  45  37 S8        30.31S
MEEKER         CLOUDY    71  47  42 E7        30.30F
MOUNT WERNER   NOT AVBL
STEAMBOAT SPGS MOSUNNY   70  49  47 NW3       30.33S
WALDEN         SUNNY     64  32  29 SW5       30.42S
$$

COZ006>008-011-011900-
...WEST CENTRAL VALLEYS...

CITY           SKY/WX    TMP DP  RH WIND       PRES   REMARKS
GRAND JUNCTION MOSUNNY   79  50  36 N3        30.19F
MONTROSE       PTSUNNY   78  50  37 VRB6      30.27F
EAGLE          PTSUNNY   70  52  52 NE5       30.36F
RIFLE          LGT RAIN  69  54  58 E7        30.28R
DELTA          PTSUNNY   81  49  32 SE3       30.22F THUNDER
NUCLA          PTSUNNY   77  50  38 CALM      30.30F
$$

COZ017>023-064>068-011900-
...SOUTHWEST COLORADO...

CITY           SKY/WX    TMP DP  RH WIND       PRES   REMARKS
DURANGO        SUNNY     72  49  44 CALM      30.32F
CORTEZ         SUNNY     78  50  37 CALM      30.26F
PAGOSA SPRINGS MOSUNNY   65  50  57 CALM      30.40F
TELLURIDE      MOSUNNY   64  46  52 CALM      30.47S
WOLF CREEK PAS NOT AVBL
$$

COZ009-010-012-014-032>034-037-058>063-011900-
...CENTRAL COLORADO...

CITY           SKY/WX    TMP DP  RH WIND       PRES   REMARKS
ASPEN          MOSUNNY   67  49  52 CALM      30.38F
BUENA VISTA    CLOUDY    60  48  65 CALM      30.43F
COPPER MTN     TSTM      45  39  81 W9        30.69R VSB 1/4
BERTHOUD PASS  FOG       37  37 100 SE10      30.71S THUNDER VSB 1/4
COTTONWOOD PAS CLOUDY    55  52  88 CALM      30.54S
GUNNISON       PTSUNNY   59  50  72 NE7       30.44S
KREMMLING      CLOUDY    64  45  48 W3        30.41S
LEADVILLE      CLOUDY    53  44  71 CALM        N/A
MONARCH PASS   CLOUDY    43  41  93 SW5       30.77R
SALIDA         CLOUDY    62  53  70 CALM      30.48S
SUNLIGHT       TSTM      50  46  87 NE5       30.62R
WILKERSON PASS DRIZZLE   45  41  87 CALM      30.65F
$$

COZ069>075-011900-
...SAN LUIS VALLEY/SANGRE DE CRISTO MOUNTAINS...

CITY           SKY/WX    TMP DP  RH WIND       PRES   REMARKS
ALAMOSA        CLOUDY    63  52  67 SW3       30.39F
LA VETA PASS   TSTM      48  46  93 E3        30.56S VSB<1/4
SAGUACHE       CLOUDY    63  52  67 CALM      30.43S
$$

COZ035-036-038>040-011900-
...NORTHERN COLORADO FRONT RANGE...

CITY           SKY/WX    TMP DP  RH WIND       PRES   REMARKS
DENVER INTL AP PTSUNNY   76  44  32 SE7       30.28F
DMNS CITY PARK   N/A     77  49  37 NE5G12    30.27S
AURORA         PTSUNNY   76  43  30 E9        30.30F
FRONT RANGE AP PTSUNNY   77  43  29 SE8       30.30S
ERIE MUNI ARPT PTSUNNY   77  42  28 CALM      30.27S
BOULDER MUN AP PTSUNNY   75  46  35 E6        30.27F
CENTENNIAL     PTSUNNY   75  39  27 E8        30.30F
BROOMFIELD     NOT AVBL
FORT COLLINS   SUNNY     77  48  36 S10       30.26F
LONGMONT       SUNNY     80  47  31 S3        30.28S
$$

COZ041-046-047-076>085-087-088-011900-
...PIKES PEAK/PALMER DIVIDE AND SOUTHERN FOOTHILLS...

CITY           SKY/WX    TMP DP  RH WIND       PRES   REMARKS
COLO. SPRINGS  PTSUNNY   71  52  50 S7        30.34F
A. F. ACADEMY  PTSUNNY   69  50  50 S8        30.34F
ELLICOTT       MOSUNNY   69  50  50 VRB3      30.33F
FALCON         MOSUNNY   70  48  46 S9        30.39S
FORT CARSON    MOSUNNY   71  54  55 SE9       30.32F
LIMON          MOSUNNY   76  43  30 SE9       30.30S
MONUMENT HILL  PTSUNNY   66  43  42 SE9       30.38S
TRINIDAD       PTSUNNY   74  54  49 MISG      30.30F
$$

COZ042>045-048>051-090-091-011900-
...NORTHEAST COLORADO...

CITY           SKY/WX    TMP DP  RH WIND       PRES   REMARKS
GREELEY ARPT   SUNNY     79  52  38 SW3       30.26F
AKRON          MOSUNNY   79  46  31 CALM      30.25F
BURLINGTON     MOSUNNY   83  43  24 CALM      30.23F
WRAY             N/A     87  47  25 SW6       30.19F
STERLING       SUNNY     84  50  30 S3        30.21S
HOLYOKE        SUNNY     86  46  25 CALM      30.20S
FORT MORGAN    SUNNY     80  47  31 SE3       30.25F
$$

COZ086-089-092>099-011900-
...SOUTHEAST COLORADO...

CITY           SKY/WX    TMP DP  RH WIND       PRES   REMARKS
PUEBLO         MOSUNNY   74  55  51 VRB3      30.25F
LA JUNTA       MOSUNNY   78  55  44 E5        30.23F
LAMAR          PTSUNNY   80  55  42 VRB6      30.20F
SPRINGFIELD      N/A     78  49  35 S10G16    30.24F
$$



USA.gov is the U.S. government's official web portal to all federal, state and local government web resources and services.